User: anonymous   Login
Location: Asheville, NC
(35.6000°N, 82.5500°W)
Time: 03:48:14
(UTC-05:00)
Language:

DELFI C3 - Orbit

View from above orbital plane
View from above orbital plane
View from above satellite
View from above satellite

Ground track
Ground track

The orbit data is extracted from the following two-line orbital elements,

1 32789U 08021G   18020.73012318 +.00000804 +00000-0 +59715-4 0  9999
2 32789 097.5325 079.1542 0014077 082.9316 277.3512 15.05687410529491
Epoch (UTC): 20 January 2018 17:31:22
Eccentricity: 0.0014077
inclination: 97.5325°
perigee height: 539 km
apogee height: 559 km
right ascension of ascending node: 79.1542°
argument of perigee: 82.9316°
revolutions per day: 15.05687410
mean anomaly at epoch: 277.3512°
orbit number at epoch: 52949

The dashed part of the orbit path shows where the satellite is in the earth's shadow,  

DLR